When you browse on this site, cookies collect data to enhance your experience and personalize the content and advertising you see.
Visit our Privacy Policy to learn more. By continuing to use the site, you agree to this use of cookies and data.
  • In Hungary
  • List of Countries
  • For 7 days
  • Water Temperature
  • Satellite Maps
  • Weather Map
  • News
  • Weather Widgets
  • user-avatar
    Login

    Hourly Weather Chaves

    Today, 23 July, Tuesday

    Time Temperature Precipitation Wind Pressure Humidity
    00:00 +25°C° 0 mm 1 mps 729 mmHg 56%
    01:00 +25°C° 0 mm 1 mps 729 mmHg 58%
    02:00 +24°C° 0 mm 1 mps 728 mmHg 60%
    03:00 +24°C° 0 mm 1 mps 728 mmHg 63%
    04:00 +23°C° 0.4 mm 1 mps 728 mmHg 65%
    05:00 +23°C° 0.4 mm 1 mps 728 mmHg 68%
    06:00 +23°C° 0.4 mm 1 mps 728 mmHg 71%
    07:00 +25°C° 0.1 mm 1 mps 728 mmHg 63%
    08:00 +28°C° 0.1 mm 1 mps 728 mmHg 54%
    09:00 +30°C° 0.1 mm 1 mps 729 mmHg 46%
    10:00 +32°C° 0 mm 1 mps 729 mmHg 41%
    11:00 +35°C° 0 mm 2 mps 729 mmHg 36%
    12:00 +37°C° 0 mm 2 mps 729 mmHg 31%
    13:00 +37°C° 0 mm 3 mps 729 mmHg 30%
    14:00 +36°C° 0 mm 3 mps 728 mmHg 30%
    15:00 +36°C° 0 mm 4 mps 728 mmHg 30%
    16:00 +35°C° 0.1 mm 4 mps 728 mmHg 32%
    17:00 +34°C° 0.1 mm 4 mps 728 mmHg 34%
    18:00 +33°C° 0.1 mm 4 mps 728 mmHg 36%
    19:00 +30°C° 0 mm 3 mps 728 mmHg 42%
    20:00 +27°C° 0 mm 2 mps 728 mmHg 49%
    21:00 +24°C° 0 mm 2 mps 728 mmHg 55%
    22:00 +24°C° 0 mm 1 mps 728 mmHg 58%
    23:00 +23°C° 0 mm 1 mps 729 mmHg 60%

    Tomorrow, 24 July, Wednesday

    Time Temperature Precipitation Wind Pressure Humidity
    00:00 +22°C° 0 mm 1 mps 729 mmHg 62%
    01:00 +20°C° 0 mm 0 mps 728 mmHg 63%
    02:00 +19°C° 0 mm 0 mps 728 mmHg 64%
    03:00 +19°C° 0 mm 0 mps 727 mmHg 64%
    04:00 +19°C° 0 mm 0 mps 727 mmHg 64%
    05:00 +19°C° 0 mm 0 mps 727 mmHg 64%
    06:00 +19°C° 0 mm 0 mps 727 mmHg 64%
    07:00 +22°C° 0 mm 0 mps 727 mmHg 57%
    08:00 +27°C° 0 mm 1 mps 728 mmHg 49%
    09:00 +30°C° 0 mm 1 mps 728 mmHg 41%
    10:00 +32°C° 0 mm 2 mps 728 mmHg 36%
    11:00 +34°C° 0 mm 2 mps 728 mmHg 32%
    12:00 +36°C° 0 mm 3 mps 727 mmHg 27%
    13:00 +37°C° 0 mm 3 mps 727 mmHg 25%
    14:00 +37°C° 0 mm 4 mps 727 mmHg 23%
    15:00 +38°C° 0 mm 4 mps 726 mmHg 21%
    16:00 +36°C° 0 mm 4 mps 726 mmHg 24%
    17:00 +35°C° 0 mm 5 mps 726 mmHg 27%
    18:00 +33°C° 0 mm 5 mps 726 mmHg 30%
    19:00 +29°C° 0 mm 4 mps 726 mmHg 36%
    20:00 +26°C° 0 mm 2 mps 727 mmHg 43%
    21:00 +23°C° 0 mm 1 mps 727 mmHg 50%
    22:00 +22°C° 0 mm 1 mps 726 mmHg 56%
    23:00 +21°C° 0 mm 1 mps 726 mmHg 62%

    Day after tomorrow, 25 July, Thursday

    Time Temperature Precipitation Wind Pressure Humidity
    00:00 +20°C° 0 mm 1 mps 726 mmHg 68%
    01:00 +20°C° 0 mm 1 mps 726 mmHg 71%
    02:00 +19°C° 0 mm 1 mps 726 mmHg 75%
    03:00 +19°C° 0 mm 1 mps 726 mmHg 78%
    04:00 +19°C° 0 mm 1 mps 726 mmHg 79%
    05:00 +19°C° 0 mm 1 mps 726 mmHg 79%
    06:00 +19°C° 0 mm 1 mps 726 mmHg 80%
    07:00 +22°C° 0 mm 1 mps 726 mmHg 70%
    08:00 +24°C° 0 mm 1 mps 726 mmHg 61%
    09:00 +27°C° 0 mm 2 mps 727 mmHg 51%
    10:00 +28°C° 0 mm 2 mps 727 mmHg 45%
    11:00 +30°C° 0 mm 3 mps 727 mmHg 39%
    12:00 +31°C° 0 mm 3 mps 727 mmHg 32%
    13:00 +32°C° 0 mm 4 mps 727 mmHg 33%
    14:00 +32°C° 0 mm 5 mps 727 mmHg 34%
    15:00 +32°C° 0 mm 5 mps 727 mmHg 35%
    16:00 +30°C° 0 mm 5 mps 727 mmHg 43%
    17:00 +28°C° 0 mm 5 mps 727 mmHg 51%
    18:00 +26°C° 0 mm 5 mps 727 mmHg 59%
    19:00 +25°C° 0.1 mm 4 mps 727 mmHg 67%
    20:00 +22°C° 0.1 mm 3 mps 727 mmHg 76%
    21:00 +20°C° 0.1 mm 2 mps 727 mmHg 85%
    22:00 +20°C° 0 mm 2 mps 727 mmHg 86%
    23:00 +19°C° 0 mm 2 mps 727 mmHg 87%

    26 July, Friday

    Time Temperature Precipitation Wind Pressure Humidity
    00:00 +18°C° 0 mm 2 mps 727 mmHg 88%
    01:00 +17°C° 0 mm 2 mps 727 mmHg 89%
    02:00 +16°C° 0 mm 2 mps 727 mmHg 89%
    03:00 +15°C° 0 mm 2 mps 727 mmHg 90%
    04:00 +15°C° 0 mm 2 mps 727 mmHg 89%
    05:00 +15°C° 0 mm 2 mps 727 mmHg 89%
    06:00 +14°C° 0 mm 2 mps 727 mmHg 88%
    07:00 +16°C° 0 mm 2 mps 727 mmHg 79%
    08:00 +18°C° 0 mm 3 mps 728 mmHg 69%
    09:00 +21°C° 0 mm 4 mps 728 mmHg 60%
    10:00 +22°C° 0 mm 4 mps 728 mmHg 54%
    11:00 +25°C° 0 mm 5 mps 728 mmHg 49%
    12:00 +26°C° 0 mm 5 mps 728 mmHg 43%
    13:00 +27°C° 0 mm 5 mps 728 mmHg 42%
    14:00 +27°C° 0 mm 5 mps 728 mmHg 42%
    15:00 +27°C° 0 mm 5 mps 728 mmHg 41%
    16:00 +26°C° 0 mm 6 mps 727 mmHg 45%
    17:00 +24°C° 0 mm 6 mps 727 mmHg 49%
    18:00 +23°C° 0 mm 6 mps 727 mmHg 52%
    19:00 +21°C° 0 mm 5 mps 727 mmHg 59%
    20:00 +19°C° 0 mm 4 mps 728 mmHg 66%
    21:00 +17°C° 0 mm 3 mps 728 mmHg 73%
    22:00 +16°C° 0 mm 3 mps 728 mmHg 78%
    23:00 +15°C° 0 mm 2 mps 728 mmHg 82%

    27 July, Saturday

    Time Temperature Precipitation Wind Pressure Humidity
    00:00 +14°C° 0 mm 2 mps 728 mmHg 86%
    01:00 +13°C° 0 mm 1 mps 728 mmHg 88%
    02:00 +13°C° 0 mm 1 mps 727 mmHg 90%
    03:00 +13°C° 0 mm 1 mps 727 mmHg 92%
    04:00 +13°C° 0 mm 1 mps 727 mmHg 88%
    05:00 +14°C° 0 mm 1 mps 727 mmHg 85%
    06:00 +14°C° 0 mm 1 mps 727 mmHg 82%
    07:00 +18°C° 0 mm 1 mps 727 mmHg 71%
    08:00 +20°C° 0 mm 1 mps 727 mmHg 60%
    09:00 +22°C° 0 mm 1 mps 727 mmHg 49%
    10:00 +23°C° 0 mm 1 mps 727 mmHg 49%
    11:00 +24°C° 0 mm 1 mps 727 mmHg 49%
    12:00 +25°C° 0 mm 2 mps 727 mmHg 48%
    13:00 +25°C° 0 mm 2 mps 726 mmHg 50%
    14:00 +26°C° 0 mm 3 mps 726 mmHg 51%
    15:00 +26°C° 0 mm 3 mps 726 mmHg 52%
    16:00 +25°C° 0 mm 3 mps 726 mmHg 54%
    17:00 +25°C° 0 mm 3 mps 726 mmHg 56%
    18:00 +23°C° 0 mm 4 mps 726 mmHg 58%
    19:00 +21°C° 0 mm 3 mps 726 mmHg 67%
    20:00 +19°C° 0 mm 3 mps 726 mmHg 76%
    21:00 +17°C° 0 mm 2 mps 726 mmHg 86%
    22:00 +17°C° 0 mm 2 mps 726 mmHg 88%
    23:00 +16°C° 0 mm 1 mps 726 mmHg 90%

    28 July, Sunday

    Time Temperature Precipitation Wind Pressure Humidity
    00:00 +15°C° 0 mm 1 mps 726 mmHg 92%
    01:00 +15°C° 0 mm 1 mps 726 mmHg 92%
    02:00 +14°C° 0 mm 1 mps 726 mmHg 92%
    03:00 +14°C° 0 mm 1 mps 726 mmHg 92%
    04:00 +14°C° 0 mm 1 mps 726 mmHg 90%
    05:00 +14°C° 0 mm 1 mps 726 mmHg 89%
    06:00 +14°C° 0 mm 1 mps 726 mmHg 88%
    07:00 +18°C° 0 mm 1 mps 726 mmHg 77%
    08:00 +21°C° 0 mm 1 mps 726 mmHg 65%
    09:00 +23°C° 0 mm 1 mps 727 mmHg 54%
    10:00 +26°C° 0 mm 1 mps 727 mmHg 47%
    11:00 +28°C° 0 mm 1 mps 727 mmHg 40%
    12:00 +30°C° 0 mm 1 mps 727 mmHg 34%
    13:00 +31°C° 0 mm 1 mps 726 mmHg 31%
    14:00 +31°C° 0 mm 1 mps 726 mmHg 29%
    15:00 +32°C° 0 mm 1 mps 726 mmHg 26%
    16:00 +31°C° 0 mm 2 mps 726 mmHg 28%
    17:00 +31°C° 0 mm 2 mps 725 mmHg 30%
    18:00 +30°C° 0 mm 2 mps 725 mmHg 31%
    19:00 +27°C° 0 mm 2 mps 726 mmHg 39%
    20:00 +24°C° 0 mm 2 mps 726 mmHg 48%
    21:00 +21°C° 0 mm 2 mps 726 mmHg 56%
    22:00 +20°C° 0 mm 2 mps 726 mmHg 61%
    23:00 +20°C° 0 mm 1 mps 726 mmHg 65%
    Show more